TimePDT,TemperatureF,Dew PointF,Humidity,Sea Level PressureIn,VisibilityMPH,Wind Direction,Wind SpeedMPH,Gust SpeedMPH,PrecipitationIn,Events,Conditions,WindDirDegrees,DateUTC
12:53 AM,44.1,37.0,76,30.06,10.0,NW,5.8,-,N/A,,Clear,310,2013-05-15 07:53:00
1:53 AM,43.0,37.9,82,30.06,10.0,NNW,4.6,-,N/A,,Clear,330,2013-05-15 08:53:00
2:53 AM,46.0,37.0,71,30.05,10.0,Calm,Calm,-,N/A,,Clear,0,2013-05-15 09:53:00
3:53 AM,42.1,37.9,85,30.06,10.0,NNW,3.5,-,N/A,,Clear,330,2013-05-15 10:53:00
4:53 AM,39.9,37.0,89,30.06,10.0,Calm,Calm,-,N/A,,Clear,0,2013-05-15 11:53:00
5:53 AM,41.0,37.9,89,30.07,10.0,North,3.5,-,N/A,,Clear,350,2013-05-15 12:53:00
6:53 AM,44.1,39.0,82,30.07,10.0,Calm,Calm,-,N/A,,Clear,0,2013-05-15 13:53:00
7:53 AM,50.0,39.0,66,30.07,10.0,Calm,Calm,-,N/A,,Clear,0,2013-05-15 14:53:00
8:53 AM,55.0,39.0,55,30.06,10.0,Calm,Calm,-,N/A,,Clear,0,2013-05-15 15:53:00
9:53 AM,59.0,37.0,44,30.05,10.0,Calm,Calm,-,N/A,,Clear,0,2013-05-15 16:53:00
10:53 AM,61.0,34.0,36,30.04,10.0,Calm,Calm,-,N/A,,Clear,0,2013-05-15 17:53:00
11:53 AM,63.0,35.1,35,30.02,10.0,North,4.6,-,N/A,,Mostly Cloudy,350,2013-05-15 18:53:00
12:53 PM,64.0,36.0,35,30.00,10.0,Calm,Calm,-,N/A,,Partly Cloudy,0,2013-05-15 19:53:00
1:53 PM,69.1,35.1,29,29.98,10.0,Variable,5.8,-,N/A,,Clear,0,2013-05-15 20:53:00
2:53 PM,71.1,36.0,28,29.96,10.0,NW,9.2,-,N/A,,Clear,310,2013-05-15 21:53:00
3:53 PM,70.0,36.0,29,29.95,10.0,Variable,3.5,-,N/A,,Clear,0,2013-05-15 22:53:00
4:53 PM,70.0,36.0,29,29.94,10.0,NW,9.2,-,N/A,,Scattered Clouds,320,2013-05-15 23:53:00
5:53 PM,70.0,36.0,29,29.93,10.0,NW,6.9,-,N/A,,Overcast,320,2013-05-16 00:53:00
6:53 PM,69.1,39.0,33,29.93,10.0,WSW,13.8,-,N/A,,Overcast,250,2013-05-16 01:53:00
7:53 PM,64.9,43.0,45,29.93,10.0,WSW,15.0,-,0.00,Rain,Light Rain,240,2013-05-16 02:53:00
8:53 PM,63.0,45.0,52,29.94,10.0,SSW,15.0,-,0.00,,Mostly Cloudy,210,2013-05-16 03:53:00
9:53 PM,61.0,43.0,52,29.94,10.0,SW,15.0,-,N/A,,Mostly Cloudy,230,2013-05-16 04:53:00
10:53 PM,59.0,43.0,55,29.94,10.0,SW,13.8,-,N/A,,Partly Cloudy,220,2013-05-16 05:53:00
11:53 PM,57.0,44.1,62,29.94,10.0,SW,15.0,-,N/A,,Clear,230,2013-05-16 06:53:00